Location: Namasale
(1.5000°N, 32.6167°E)
Time: 19:44:42
(UTC+00:00)

STARLINK-1108 - Pass Details

Date: 09 April 2020
Orbit: 549 x 550 km, 53.0° (Epoch: 28 May)

Event Time Altitude Azimuth Distance (km) Brightness Sun altitude
Rises 16:40:04 0° 325° (NW) 2,704 7.8 -11.9°
Reaches altitude 10° 16:42:18 10° 325° (NW) 1,813 6.9 -12.5°
Maximum altitude 16:46:25 85° 238° (WSW) 554 3.6 -13.5°
Enters shadow 16:50:11 12° 148° (SSE) 1,670 5.7 -14.4°
